Location: Marquette
(46.5440°N, 87.3950°W)
Time: 20:19:28
(UTC-04:00)

Daily predictions for brighter satellites

Satellite Brightness Start Highest point End
(mag) Time Altitude Azimuth Time Altitude Azimuth Time Altitude Azimuth
Cosmos 2034 Rocket 4.2 21:55:36 10° N 22:01:59 67° E 22:08:16 10° SSE
Terra 4.0 22:03:08 10° E 22:05:08 13° ENE 22:07:09 10° NNE
Atlas Centaur 2 4.2 22:03:33 10° SSW 22:08:39 19° SSE 22:14:07 10° ESE
ATLAS CENTAUR R/B 2.9 22:04:00 10° SW 22:08:54 52° NW 22:13:51 10° NNE
Meteor 1-15 Rocket 4.3 22:04:06 10° NNW 22:09:43 89° WSW 22:15:21 10° S
Cosmos 2369 Rocket 3.3 22:05:47 10° NNW 22:10:52 32° NE 22:15:55 10° ESE
Cosmos 2219 Rocket 4.4 22:06:34 10° WSW 22:11:32 31° NW 22:16:30 10° N
H-2A R/B 2.4 22:07:44 10° S 22:11:57 67° WSW 22:16:19 10° NNW
Cosmos 1302 Rocket 4.2 22:07:24 10° NNW 22:12:39 77° WSW 22:17:53 10° SSE
DEBRIS 3.7 22:06:37 10° WNW 22:12:55 42° SW 22:15:27 10° SSE
SeaSat 1 2.5 22:08:09 10° SE 22:13:05 79° ENE 22:18:03 10° NNW
Cosmos 1666 2.9 22:10:58 10° N 22:14:53 80° W 22:18:46 10° S
ARGOS 4.1 22:11:07 10° SE 22:15:58 35° ENE 22:20:50 10° N
CZ-4B R/B 4.2 22:12:04 10° NNE 22:16:40 34° E 22:21:20 10° SSE
PSLV R/B 3.1 22:16:44 10° SSE 22:19:48 73° ENE 22:22:56 10° N
SL-16 R/B 2.5 22:14:23 10° SSW 22:20:02 73° WNW 22:25:44 10° NNE
Cosmos 1626 Rocket 3.6 22:16:35 10° S 22:20:57 61° E 22:25:19 10° NNE
Cosmos 1939 Rocket 3.3 22:19:13 10° S 22:23:22 69° W 22:27:31 10° NNW
COSMOS 2455 3.3 22:22:22 10° S 22:27:50 38° ESE 22:33:20 10° NE
Cosmos 2228 3.7 22:24:33 10° NNW 22:28:54 57° W 22:33:13 10° S
Lacrosse 5 rocket 2.5 22:29:37 10° WSW 22:33:25 46° NNW 22:37:25 10° NE
MetOp-B 4.2 22:28:27 10° SSE 22:33:47 78° ENE 22:39:10 10° NNW
ATLAS 3B R/B 3.7 22:31:53 10° SSE 22:38:11 29° ESE 22:44:23 10° NE
Cosmos 1515 3.9 22:43:53 11° S 22:47:30 51° E 22:51:16 10° NNE
Envisat 3.6 22:43:54 10° S 22:48:51 54° W 22:53:52 10° NNW
Cosmos 1603 3.6 22:43:20 10° SSW 22:48:57 80° ESE 22:54:35 10° NNE
Abrixas rocket 4.5 22:47:14 10° W 22:49:25 16° SW 22:51:25 11° S
USA 234 3.4 22:45:49 13° SE 22:51:41 71° SW 22:58:17 10° NW
Cosmos 1346 Rocket 3.6 22:56:00 19° SE 22:58:09 32° E 23:01:40 10° NNE
DELTA 2 DEB (DPAF) 4.4 22:56:14 17° SE 22:59:31 56° ENE 23:03:57 10° N
Lacrosse 4 Rocket 2.7 22:59:12 19° SE 23:00:12 20° ESE 23:03:16 10° ENE
UNK 4.3 22:57:19 10° NNE 23:02:42 83° WNW 23:08:20 10° SSW
USA 81 4.0 22:58:20 10° N 23:03:39 78° E 23:08:02 15° S
YAOGAN 6 3.0 23:02:20 14° S 23:05:24 64° W 23:09:09 10° NNW
ISS -2.7 23:05:32 10° SSW 23:08:30 32° SE 23:11:28 10° ENE
BREEZE-M DEB (TANK) 1.9 23:05:33 10° SW 23:08:37 49° SSE 23:09:50 20° E
PSLV R/B 4.4 23:05:34 10° SW 23:08:38 27° SSE 23:09:23 25° SE
CZ-4 R/B 3.9 23:05:35 10° NNE 23:10:35 72° ESE 23:15:27 11° S
Cosmos 1758 Rocket 4.0 23:10:06 21° SSE 23:12:40 43° E 23:16:49 10° NNE
Cosmos 1943 3.3 23:08:00 10° S 23:13:30 54° ESE 23:19:03 10° NE
CARTOSAT-1 4.0 23:14:29 22° SE 23:16:59 50° ENE 23:21:11 10° N
Cosmos 1943 Rocket 2.9 23:14:32 10° NNW 23:19:49 42° NE 23:23:31 18° ESE
SPOT 5 4.4 23:16:36 10° SSW 23:20:22 27° W 23:24:06 10° NW
Cosmos 1992 Rocket 4.4 23:19:21 10° NNW 23:24:29 59° WSW 23:28:11 19° S
SL-8 R/B 4.0 23:19:55 10° W 23:24:46 70° N 23:29:36 10° E
Spot 4 4.3 23:22:16 23° SE 23:24:59 49° ENE 23:29:36 10° N
Landsat 7 3.8 23:23:17 22° SSE 23:26:20 85° ENE 23:31:07 10° NNW
SL-08 RB Rocket 4.0 23:27:20 20° S 23:30:27 65° WSW 23:34:59 10° NNW
Cosmos 1825 Rocket 3.7 23:26:47 13° SSW 23:30:41 74° W 23:35:07 10° N
H-2A R/B 2.0 23:28:49 24° SSE 23:31:47 74° ENE 23:36:51 10° N
SAR-Lupe-2 3.5 23:30:47 32° SSE 23:32:19 79° ENE 23:35:56 10° N
Cosmos 1766 3.3 23:28:30 10° N 23:32:31 71° E 23:34:21 31° SSE
Lacrosse 5 4.1 23:31:36 10° WNW 23:35:47 25° N 23:39:58 10° NE
Geosat 3.9 23:34:29 10° NNE 23:39:33 77° ESE 23:44:24 11° SSW
Terra 1.8 23:39:33 28° SSE 23:42:08 85° ENE 23:46:55 10° NNW
Cosmos 1190 Rocket 4.0 23:40:31 12° SSW 23:45:30 90° WNW 23:50:52 10° NNE
DMSP B5D2-2 4.1 23:45:13 10° NNE 23:50:31 67° ESE 23:53:27 26° S
CZ-4C R/B 4.4 23:48:45 21° SSW 23:51:13 42° W 23:55:07 10° NNW
